"Pseudo-MPEC" for IA0T1J7

Created 2020 Oct 28 20:07:08 UT using Find_Orb

Click here for an explanation of pseudo-MPECs

 
 Astrometry: 
     IA0T1J7 !C2020 10 13E^mX1Tl[86kf98E1Astrometry$5p;,CT8;redacted;0vSFR^EvW84
     IA0T1J7 !C2020 10 13oyCclick+kYPXrh#]Fmhere.ay+kFASxforg+KexplanationPmuW84
     IA0T1J7 !C2020 10 13)6ZtId,uRdYxWA_0LUUr5w%40Pj:w?C3Sq6=$2ohEGyf`c8dQoi?W84

Station data:
(W84) Cerro Tololo-DECam  (S30.169597 W70.806420)  Chile. 4.0-m f/2.87
   reflector + CCD.

Orbital elements:  IA0T1J7
   Perihelion 2020 Sep 25.896530 +/- 38.8 TT = 21:31:00 (JD 2459118.396530)
Epoch 2020 Oct 13.0 TT = JDT 2459135.5   Earth MOID: 0.3410   Ma: 0.0858
M   4.70980175 +/- 28               (J2000 ecliptic)          AutoNEOCP
n   0.27537112 +/- 0.32             Peri.  266.61441 +/- 110
a   2.33986310 +/- 1.81             Node    91.74356 +/- 54
e   0.4382843 +/- 0.253             Incl.    7.12237 +/- 11
P   3.58                   H 22.8   G  0.15   U 12.0  SR
q 1.31433783 +/- 0.395    Q 3.36538837 +/- 44.4
From 3 observations 2020 Oct. 13 (10.4 min); mean residual 0".00
Residuals in arcseconds: 
201013 W84  .00   .00     201013 W84  .00   .00     201013 W84  .00   .00     

Ephemerides (geocentric):
Date (UTC) HH   RA              Dec         delta   r     elong  mag " sig PA
---- -- -- --  -------------   -----------  ------ ------ -----  --- ---- ---
2020 10 28 20  00 16 28.325   -20 17 03.45  .45147 1.3540 135.8 23.1  33d 158
2020 10 28 21  00 16 31.243   -20 15 56.04  .45166 1.3541 135.8 23.1  33d 158
2020 10 28 22  00 16 34.162   -20 14 48.61  .45186 1.3542 135.7 23.1  33d 158
2020 10 28 23  00 16 37.083   -20 13 41.17  .45206 1.3543 135.7 23.1  33d 158
2020 10 29 00  00 16 40.006   -20 12 33.70  .45225 1.3544 135.7 23.1  33d 159
2020 10 29 01  00 16 42.930   -20 11 26.22  .45245 1.3545 135.7 23.1  33d 159
2020 10 29 02  00 16 45.856   -20 10 18.72  .45264 1.3546 135.7 23.1  33d 159
2020 10 29 03  00 16 48.784   -20 09 11.20  .45284 1.3547 135.7 23.1  33d 159
2020 10 29 04  00 16 51.713   -20 08 03.67  .45304 1.3548 135.7 23.1  33d 159
2020 10 29 05  00 16 54.644   -20 06 56.12  .45323 1.3549 135.6 23.1  34d 159
2020 10 29 06  00 16 57.576   -20 05 48.55  .45343 1.3550 135.6 23.1  34d 159
2020 10 29 07  00 17 00.510   -20 04 40.96  .45363 1.3551 135.6 23.1  34d 159
2020 10 29 08  00 17 03.445   -20 03 33.36  .45383 1.3552 135.6 23.1  34d 159
2020 10 29 09  00 17 06.383   -20 02 25.74  .45402 1.3553 135.6 23.1  34d 159
2020 10 29 10  00 17 09.321   -20 01 18.11  .45422 1.3554 135.6 23.1  34d 159
2020 10 29 11  00 17 12.262   -20 00 10.45  .45442 1.3555 135.6 23.1  34d 159
2020 10 29 12  00 17 15.204   -19 59 02.78  .45462 1.3556 135.5 23.1  34d 159
2020 10 29 13  00 17 18.147   -19 57 55.09  .45482 1.3557 135.5 23.1  34d 159
2020 10 29 14  00 17 21.092   -19 56 47.39  .45502 1.3558 135.5 23.1  34d 159
2020 10 29 15  00 17 24.039   -19 55 39.67  .45521 1.3559 135.5 23.1  34d 159
2020 10 29 16  00 17 26.987   -19 54 31.94  .45541 1.3560 135.5 23.1  34d 159
2020 10 29 17  00 17 29.937   -19 53 24.18  .45561 1.3561 135.5 23.1  34d 159
2020 10 29 18  00 17 32.889   -19 52 16.41  .45581 1.3562 135.5 23.1  34d 159
2020 10 29 19  00 17 35.842   -19 51 08.63  .45601 1.3563 135.4 23.1  34d 159
2020 10 29 20  00 17 38.797   -19 50 00.83  .45621 1.3564 135.4 23.1  34d 159
2020 10 29 21  00 17 41.753   -19 48 53.01  .45641 1.3565 135.4 23.1  34d 159
2020 10 29 22  00 17 44.711   -19 47 45.18  .45661 1.3566 135.4 23.1  34d 159
2020 10 29 23  00 17 47.670   -19 46 37.33  .45681 1.3567 135.4 23.1  34d 159
2020 10 30 00  00 17 50.631   -19 45 29.47  .45701 1.3568 135.4 23.1  34d 159
2020 10 30 01  00 17 53.594   -19 44 21.59  .45721 1.3569 135.4 23.1  34d 159
2020 10 30 02  00 17 56.558   -19 43 13.69  .45742 1.3570 135.3 23.1  34d 159
2020 10 30 03  00 17 59.524   -19 42 05.78  .45762 1.3571 135.3 23.1  34d 159
2020 10 30 04  00 18 02.491   -19 40 57.85  .45782 1.3572 135.3 23.1  34d 159
2020 10 30 05  00 18 05.460   -19 39 49.91  .45802 1.3573 135.3 23.1  34d 159
2020 10 30 06  00 18 08.431   -19 38 41.95  .45822 1.3574 135.3 23.1  35d 159
2020 10 30 07  00 18 11.403   -19 37 33.98  .45842 1.3575 135.3 23.1  35d 159
2020 10 30 08  00 18 14.377   -19 36 26.00  .45863 1.3576 135.2 23.1  35d 159
2020 10 30 09  00 18 17.352   -19 35 17.99  .45883 1.3577 135.2 23.1  35d 159
2020 10 30 10  00 18 20.329   -19 34 09.98  .45903 1.3578 135.2 23.1  35d 159
2020 10 30 11  00 18 23.307   -19 33 01.94  .45923 1.3579 135.2 23.1  35d 159
2020 10 30 12  00 18 26.287   -19 31 53.90  .45944 1.3580 135.2 23.1  35d 159
2020 10 30 13  00 18 29.269   -19 30 45.84  .45964 1.3581 135.2 23.1  35d 159
2020 10 30 14  00 18 32.252   -19 29 37.76  .45984 1.3582 135.2 23.1  35d 159
2020 10 30 15  00 18 35.237   -19 28 29.67  .46005 1.3583 135.1 23.1  35d 159
2020 10 30 16  00 18 38.223   -19 27 21.57  .46025 1.3584 135.1 23.1  35d 159
2020 10 30 17  00 18 41.211   -19 26 13.45  .46046 1.3585 135.1 23.1  35d 159
2020 10 30 18  00 18 44.200   -19 25 05.31  .46066 1.3586 135.1 23.1  35d 159
2020 10 30 19  00 18 47.191   -19 23 57.17  .46086 1.3587 135.1 23.1  35d 159